Hourly Weather Barnkowo

Today, 8 May, Saturday

Time Temperature Precipitation Wind Pressure Humidity
00:00 +1°C° 0 mm 3 mps 759 mmHg 94%
01:00 +1°C° 0 mm 3 mps 759 mmHg 94%
02:00 +1°C° 0 mm 3 mps 759 mmHg 94%
03:00 0°C° 0 mm 3 mps 760 mmHg 95%
04:00 0°C° 0 mm 3 mps 760 mmHg 96%
05:00 0°C° 0 mm 4 mps 760 mmHg 93%
06:00 +3°C° 0 mm 4 mps 760 mmHg 90%
07:00 +3°C° 0 mm 5 mps 761 mmHg 87%
08:00 +6°C° 0 mm 5 mps 761 mmHg 77%
09:00 +7°C° 0 mm 5 mps 761 mmHg 67%
10:00 +9°C° 0 mm 5 mps 761 mmHg 58%
11:00 +11°C° 0 mm 4 mps 761 mmHg 53%
12:00 +11°C° 0 mm 4 mps 761 mmHg 49%
13:00 +12°C° 0 mm 4 mps 760 mmHg 45%
14:00 +12°C° 0 mm 4 mps 760 mmHg 44%
15:00 +13°C° 0 mm 3 mps 760 mmHg 44%
16:00 +13°C° 0 mm 3 mps 760 mmHg 43%
17:00 +13°C° 0 mm 2 mps 760 mmHg 49%
18:00 +10°C° 0 mm 2 mps 760 mmHg 55%
19:00 +10°C° 0 mm 1 mps 760 mmHg 61%
20:00 +9°C° 0 mm 2 mps 759 mmHg 60%
21:00 +8°C° 0 mm 3 mps 759 mmHg 60%
22:00 +7°C° 0 mm 3 mps 759 mmHg 60%
23:00 +8°C° 0 mm 3 mps 759 mmHg 59%

Tomorrow, 9 May, Sunday

Time Temperature Precipitation Wind Pressure Humidity
00:00 +7°C° 0 mm 4 mps 758 mmHg 59%
01:00 +7°C° 0 mm 4 mps 758 mmHg 58%
02:00 +7°C° 0 mm 5 mps 758 mmHg 60%
03:00 +8°C° 0 mm 5 mps 757 mmHg 61%
04:00 +8°C° 0 mm 5 mps 757 mmHg 63%
05:00 +9°C° 0 mm 5 mps 757 mmHg 65%
06:00 +9°C° 0 mm 5 mps 757 mmHg 68%
07:00 +11°C° 0 mm 4 mps 757 mmHg 70%
08:00 +13°C° 0 mm 5 mps 756 mmHg 67%
09:00 +15°C° 0 mm 5 mps 756 mmHg 64%
10:00 +17°C° 0 mm 6 mps 756 mmHg 61%
11:00 +19°C° 0 mm 6 mps 756 mmHg 58%
12:00 +20°C° 0 mm 6 mps 756 mmHg 55%
13:00 +22°C° 0 mm 6 mps 756 mmHg 52%
14:00 +22°C° 0 mm 5 mps 756 mmHg 54%
15:00 +22°C° 0 mm 5 mps 755 mmHg 55%
16:00 +23°C° 0 mm 5 mps 755 mmHg 57%
17:00 +21°C° 0 mm 4 mps 755 mmHg 62%
18:00 +19°C° 0 mm 4 mps 755 mmHg 68%
19:00 +18°C° 0 mm 4 mps 755 mmHg 74%
20:00 +17°C° 0 mm 4 mps 755 mmHg 76%
21:00 +15°C° 0 mm 4 mps 755 mmHg 78%
22:00 +14°C° 0 mm 5 mps 755 mmHg 80%
23:00 +14°C° 0 mm 4 mps 755 mmHg 81%

Day after tomorrow, 10 May, Monday

Time Temperature Precipitation Wind Pressure Humidity
00:00 +13°C° 0 mm 4 mps 755 mmHg 81%
01:00 +12°C° 0 mm 4 mps 755 mmHg 81%
02:00 +11°C° 0 mm 4 mps 755 mmHg 83%
03:00 +11°C° 0 mm 4 mps 755 mmHg 84%
04:00 +10°C° 0 mm 4 mps 754 mmHg 85%
05:00 +11°C° 0 mm 4 mps 754 mmHg 82%
06:00 +12°C° 0 mm 4 mps 754 mmHg 78%
07:00 +13°C° 0 mm 5 mps 754 mmHg 74%
08:00 +15°C° 0 mm 5 mps 754 mmHg 69%
09:00 +16°C° 0 mm 5 mps 754 mmHg 65%
10:00 +19°C° 0 mm 6 mps 753 mmHg 60%
11:00 +20°C° 0 mm 5 mps 753 mmHg 58%
12:00 +21°C° 0 mm 5 mps 753 mmHg 56%
13:00 +22°C° 0 mm 5 mps 753 mmHg 54%
14:00 +23°C° 0 mm 4 mps 753 mmHg 55%
15:00 +25°C° 0 mm 4 mps 753 mmHg 55%
16:00 +26°C° 0 mm 3 mps 754 mmHg 56%
17:00 +24°C° 0 mm 3 mps 754 mmHg 61%
18:00 +23°C° 0 mm 2 mps 754 mmHg 67%
19:00 +22°C° 0 mm 1 mps 754 mmHg 72%
20:00 +19°C° 0 mm 2 mps 754 mmHg 78%
21:00 +18°C° 0 mm 3 mps 755 mmHg 83%
22:00 +15°C° 0 mm 4 mps 755 mmHg 89%
23:00 +15°C° 0 mm 4 mps 755 mmHg 90%

11 May, Tuesday

Time Temperature Precipitation Wind Pressure Humidity
00:00 +14°C° 0 mm 4 mps 754 mmHg 92%
01:00 +13°C° 0 mm 4 mps 754 mmHg 93%
02:00 +12°C° 0 mm 4 mps 754 mmHg 94%
03:00 +12°C° 0 mm 3 mps 754 mmHg 95%
04:00 +12°C° 0 mm 3 mps 753 mmHg 97%
05:00 +13°C° 0 mm 3 mps 753 mmHg 92%
06:00 +16°C° 0 mm 3 mps 753 mmHg 88%
07:00 +17°C° 0 mm 3 mps 753 mmHg 84%
08:00 +18°C° 0 mm 3 mps 752 mmHg 79%
09:00 +20°C° 0 mm 3 mps 752 mmHg 73%
10:00 +23°C° 0 mm 2 mps 752 mmHg 68%
11:00 +23°C° 0 mm 2 mps 752 mmHg 65%
12:00 +24°C° 0 mm 2 mps 752 mmHg 63%
13:00 +25°C° 0 mm 2 mps 752 mmHg 61%
14:00 +23°C° 0 mm 2 mps 752 mmHg 66%
15:00 +21°C° 0 mm 3 mps 752 mmHg 72%
16:00 +20°C° 0 mm 3 mps 752 mmHg 78%
17:00 +19°C° 0 mm 3 mps 752 mmHg 81%
18:00 +18°C° 0 mm 3 mps 752 mmHg 84%
19:00 +17°C° 0 mm 3 mps 752 mmHg 87%
20:00 +16°C° 0 mm 3 mps 752 mmHg 89%
21:00 +15°C° 0 mm 2 mps 752 mmHg 90%
22:00 +14°C° 0 mm 2 mps 752 mmHg 91%
23:00 +14°C° 0.2 mm 2 mps 752 mmHg 93%

12 May, Wednesday

Time Temperature Precipitation Wind Pressure Humidity
00:00 +14°C° 0.2 mm 2 mps 752 mmHg 94%
01:00 +13°C° 0.2 mm 2 mps 751 mmHg 96%
02:00 +13°C° 0 mm 2 mps 751 mmHg 96%
03:00 +13°C° 0 mm 2 mps 751 mmHg 96%
04:00 +13°C° 0 mm 2 mps 751 mmHg 97%
05:00 +14°C° 0 mm 2 mps 751 mmHg 94%
06:00 +15°C° 0 mm 2 mps 751 mmHg 92%
07:00 +16°C° 0 mm 2 mps 751 mmHg 89%
08:00 +17°C° 0 mm 2 mps 751 mmHg 86%
09:00 +18°C° 0 mm 3 mps 751 mmHg 82%
10:00 +20°C° 0 mm 3 mps 751 mmHg 79%
11:00 +19°C° 0 mm 4 mps 752 mmHg 79%
12:00 +18°C° 0 mm 4 mps 752 mmHg 80%
13:00 +17°C° 0 mm 5 mps 752 mmHg 80%
14:00 +16°C° 0.1 mm 5 mps 753 mmHg 82%
15:00 +15°C° 0.1 mm 5 mps 753 mmHg 83%
16:00 +14°C° 0.1 mm 5 mps 753 mmHg 85%
17:00 +13°C° 0.1 mm 4 mps 754 mmHg 87%
18:00 +12°C° 0.1 mm 4 mps 754 mmHg 89%
19:00 +11°C° 0.1 mm 4 mps 754 mmHg 92%
20:00 +11°C° 0.4 mm 4 mps 754 mmHg 93%
21:00 +11°C° 0.4 mm 4 mps 754 mmHg 94%
22:00 +11°C° 0.4 mm 4 mps 754 mmHg 96%
23:00 +11°C° 0.6 mm 4 mps 754 mmHg 96%

13 May, Thursday

Time Temperature Precipitation Wind Pressure Humidity
00:00 +11°C° 0.6 mm 4 mps 754 mmHg 97%
01:00 +11°C° 0.6 mm 4 mps 754 mmHg 97%
02:00 +10°C° 0.1 mm 4 mps 754 mmHg 97%
03:00 +10°C° 0.1 mm 4 mps 754 mmHg 97%
04:00 +10°C° 0.1 mm 4 mps 754 mmHg 98%
05:00 +11°C° 0 mm 4 mps 754 mmHg 95%
06:00 +11°C° 0 mm 4 mps 754 mmHg 93%
07:00 +12°C° 0 mm 3 mps 754 mmHg 90%
08:00 +13°C° 0 mm 3 mps 754 mmHg 84%
09:00 +14°C° 0 mm 3 mps 753 mmHg 78%
10:00 +16°C° 0 mm 3 mps 753 mmHg 72%
11:00 +17°C° 0 mm 2 mps 753 mmHg 68%
12:00 +18°C° 0 mm 2 mps 753 mmHg 64%
13:00 +18°C° 0 mm 2 mps 753 mmHg 60%
14:00 +19°C° 0 mm 2 mps 753 mmHg 61%
15:00 +19°C° 0 mm 2 mps 753 mmHg 62%
16:00 +19°C° 0 mm 2 mps 752 mmHg 62%
17:00 +17°C° 0 mm 2 mps 752 mmHg 67%
18:00 +16°C° 0 mm 3 mps 753 mmHg 72%
19:00 +14°C° 0 mm 3 mps 753 mmHg 78%
20:00 +14°C° 0 mm 2 mps 753 mmHg 78%
21:00 +14°C° 0 mm 2 mps 753 mmHg 79%
22:00 +13°C° 0 mm 2 mps 752 mmHg 80%
23:00 +13°C° 0 mm 2 mps 752 mmHg 81%
Show more